Simultaneous Nadir Overpasses (SNOs) Predictions

Prediction of SNOs between METOP-B and NOAA-19 Satellite Orbit:

Table of predicted SNOs for the next 14.0 days since TLE Epoch: 4/3/2016
Index Date (METOP-B) Time (METOP-B) Lat,Lon (METOP-B) SZA (METOP-B ) Date (NOAA-19) Time (NOAA-19) Lat,Lon (NOAA-19) SZA (NOAA-19 ) Distance(km) Time Diff (sec)
1 04/12/2016 14:18:56 -75.94, 145.04 113.13 04/12/2016 14:17:48 -75.93, 145.07 113.13 1.30 68
2 04/12/2016 15:09:36 75.91, -47.71 66.84 04/12/2016 15:08:46 75.90, -47.58 66.84 3.60 50
3 04/12/2016 16:00:18 -75.92, 119.64 113.17 04/12/2016 15:59:50 -75.92, 119.59 113.16 1.33 28
4 04/12/2016 16:50:58 75.89, -73.12 66.80 04/12/2016 16:50:48 75.90, -73.07 66.80 1.50 10
5 04/12/2016 17:41:40 -75.90, 94.24 113.21 04/12/2016 17:41:51 -75.87, 94.26 113.24 3.32 11
6 04/12/2016 18:32:20 75.87, -98.52 66.75 04/12/2016 18:32:50 75.89, -98.55 66.77 2.45 30
7 04/12/2016 19:23:02 -75.88, 68.84 113.26 04/12/2016 19:23:53 -75.86, 68.78 113.27 2.43 51
8 04/12/2016 20:13:42 75.85,-123.92 66.71 04/12/2016 20:14:51 75.84,-123.88 66.69 1.68 69




NCC Satellite Simultaneous Nadir Overpasses (SNOs) Prediction Service
